Voltar ao catálogo

THAICOM 8

AtivoComunicaçõesGEO
NORAD 41552·PAYLOAD·🇹🇭 Thailand

Lançado May 27, 2016 de Cape Canaveral Space Force Station

Loading…

TLE

AtualizadoSource: Space-Track

Época: Sep 14, 2026, 14:10 UTC

1 41552U 16031A   26257.59070108 -.00000129  00000-0  00000-0 0  9993
2 41552   0.0719  24.4141 0001149  79.4582 180.8686  1.00270933 37611

Acompanhe THAICOM 8 em tempo real com AllMySat

Download on the App Store